Погода в Коньяалты

Турция     36°53′24″N   30°37′52″E
темп.,
°C
ветер,
м/с
пор.,
м/с
влажн.,
%
обл.,
%
осадки,
мм/ч
давл.,
гПа
погр.,
м
26 июля, пн
пн2600:00+27ссз47380 0.0 1009252
03:00+26ссз48430 0.0 1008228
06:00+25ссз59440 0.0 1008218
09:00+31ссз56280 0.0 1009738
12:00+37зсз33170 0.0 10092933
15:00+38ююз65175 0.0 10072128
18:00+35юв55212 0.0 10081029
21:00+30всв22345 0.0 1010137
27 июля, вт
вт2700:00+29ссз22340 0.0 101086
03:00+28ссз35310 0.0 1010132
06:00+27ссз49360 0.0 1010211
09:00+33ссз68260 0.0 10111128
12:00+38ссз55160 0.0 10102805
15:00+40ссз34120 0.0 10073392
18:00+40св44130 0.0 10062804
21:00+33ссз23230 0.0 1008138
28 июля, ср
ср2800:00+30ссз36270 0.0 1008149
03:00+29ссз36300 0.0 1008183
06:00+28ссз48350 0.0 1009233
09:00+33ссз67240 0.0 10091158
12:00+38ссв34120 0.0 10072080
15:00+41всв3490 0.0 10052839
18:00+41всв2390 0.0 10032806
21:00+33ссз23150 0.0 1005143
29 июля, чт
чт2900:00+30ссз35200 0.0 1006137
03:00+29ссз59230 0.0 1005214
06:00+27ссз510270 0.0 1005255
09:00+33с68190 0.0 10051109
12:00+39с4590 0.0 10041905
15:00+43ссв2370 0.0 10022843
18:00+41в34100 0.0 10012220
21:00+31ююв01320 0.0 1004150
30 июля, пт
пт3000:00+30ссз34200 0.0 1004108
03:00+28ссз48200 0.0 1003167
06:00+27ссз48210 0.0 1004186
09:00+35ссз57160 0.0 1004987
12:00+40с23120 0.0 10032435
15:00+43в2490 0.0 10013528
18:00+39юв44140 0.0 10011292
21:00+31ссв12300 0.0 1003147